Hourly Data Report for September 12, 2017

All times are specified in Local Standard Time (LST). Add 1 hour to adjust for Daylight Saving Time where and when it is observed.

EAST POINT (AUT)
PRINCE EDWARD ISLAND

46°27'36.000" N
61°59'18.000" W
7.70 m
8300418
71412
WEP

Download Data

Hourly Data (September 2017)
Hourly Data Report for September 12, 2017
Temp Definition
°C
Dew Point Temp Definition
°C
Rel Hum Definition
%
Wind Dir Definition
10's deg

Wind Spd Definition
km/h
Visibility Definition
km
Stn Press Definition
kPa
Hmdx Definition


Wind Chill Definition


Weather Definition


TIME
00:00 16.2 11.5 74 1 47   100.90     LegendNANA
01:00 16.2 11.3 73 3 43   100.89     LegendNANA
02:00 15.3 11.3 77 3 41   100.87     LegendNANA
03:00 15.1 11.5 79 2 42   100.85     LegendNANA
04:00 15.0 11.1 78 2 43   100.84     LegendNANA
05:00 14.9 11.2 78 2 46   100.81     LegendNANA
06:00 14.7 11.7 82 2 37   100.82     LegendNANA
07:00 14.9 11.7 81 2 36   100.84     LegendNANA
08:00 14.7 11.9 84 1 32   100.84     LegendNANA
09:00 15.1 11.9 81 1 24   100.83     LegendNANA
10:00 14.9 11.8 81 36 26   100.81     LegendNANA
11:00 15.2 10.7 75 35 26   100.77     LegendNANA
12:00 15.6 10.8 73 34 26   100.73     LegendNANA
13:00 15.8 10.3 70 35 22   100.69     LegendNANA
14:00 16.3 10.7 70 33 20   100.65     LegendNANA
15:00 16.4 10.6 69 32 23   100.57     LegendNANA
16:00 15.2 10.3 73 32 19   100.52     LegendNANA
17:00 14.6 10.3 75 33 17   100.52     LegendNANA
18:00 14.3 10.5 78 34 18   100.52     LegendNANA
19:00 14.4 10.5 78 34 14   100.50     LegendNANA
20:00 14.3 10.4 77 32 13   100.49     LegendNANA
21:00 14.2 11.0 81 32 12   100.46     LegendNANA
22:00 14.1 10.6 79 31 11   100.43     LegendNANA
23:00 14.2 10.6 79 32 16   100.39     LegendNANA

Notes on Data Quality.

Legend

  • E = Estimated
  • M = Missing
  • NA = Not Available
  • ‡ = Partner data that is not subject to review by the National Climate Archives
Date modified: